Location: Exeidioux
(45.6312°N, 1.6819°E)
Time: 08:06:33
(UTC+00:00)

Cosmos 1933 Rocket - Pass Details

Date: 03 March 2021
Orbit: 607 x 629 km, 82.5° (Epoch: 11 April)

Event Time Altitude Azimuth Distance (km) Brightness Sun altitude
Rises 18:55:42 0° 181° (S) 2,858 6.9 -13.5°
Reaches altitude 10° 18:57:54 10° 179° (S) 1,961 6.1 -13.9°
Maximum altitude 19:02:13 70° 96° (E) 656 3.4 -14.6°
Drops below altitude 10° 19:06:36 10° 13° (NNE) 1,990 6.1 -15.4°
Sets 19:08:51 0° 11° (NNE) 2,904 7.0 -15.8°
